Home   Weather   Providence   Past weeks

Flag for USA Past Weather in Providence, Rhode Island, USA — Yesterday and Last 2 Weeks

Now
57 °F

Fog.


Feels Like: 57 °F
Forecast: 53 / 63 °F
Wind: 5 mph from Southeast

Location: Green State Airport

Current Time: Apr 26, 2017 at 11:28:42 pm

Latest Report: Apr 26, 2017 at 10:51 pm


Visibility: 1 mi

Pressure: 29.85 "Hg

Humidity: 100%

Dew Point: 57 °F

Location of ProvidenceLocation

Past Weather in Providence — Graph

°F

Providence Temperature Yesterday

Maximum temperature yesterday: 52 °F (at 12:51 pm)
Minimum temperature yesterday: 49 °F (at 2:15 pm)
Average temperature yesterday: 50 °F

High & Low Weather Summary for the Past Weeks

 TemperatureHumidityPressure
High86 °F (Apr 16, 3:51 pm)100% (Apr 21, 3:51 am)30.59 "Hg (Apr 21, 3:51 am)
Low36 °F (Apr 19, 5:30 am)18% (Apr 14, 2:51 pm)29.70 "Hg (Apr 16, 6:51 pm)
Average53 °F74%30.12 "Hg
* Reported Apr 11 8:51 pm — Apr 26 8:51 pm, Providence, Weather by CustomWeather, © 2017

Note: Actual official high and low records may vary slightly from our data, if they occured in-between our weather recording intervals... More about our weather records

Advertising

Providence Weather History for the Previous 24 Hours

Scroll right to see more
 ConditionsComfort  
Time TempWeatherWind HumidityBarometerVisibility
8:51 pm
Wed, Apr 26
59 °FLight rain. Low clouds.No wind100%29.80 "Hg9 mi
7:51 pm59 °FLow clouds.7 mph100%29.80 "Hg10 mi
7:34 pm60 °FLow clouds.5 mph100%29.80 "Hg10 mi
6:51 pm61 °FMostly cloudy.5 mph97%29.78 "Hg10 mi
5:51 pm61 °FCloudy.6 mph100%29.78 "Hg10 mi
5:11 pm61 °FFog.8 mph100%29.78 "Hg3 mi
4:54 pm60 °FLight rain. Fog.6 mph100%29.79 "Hg3 mi
4:09 pm60 °FLight rain. Fog.7 mph100%29.79 "Hg1 mi
3:59 pm60 °FLight rain. Fog.5 mph100%29.79 "Hg6 mi
3:35 pm59 °FLight rain. Fog.6 mph100%29.80 "Hg2 mi
2:51 pm59 °FLight rain. Fog.6 mph100%29.81 "Hg2 mi
2:36 pm60 °FLight rain. Fog.7 mph96%29.81 "Hg2 mi
2:04 pm58 °FLight rain. Fog.3 mph100%29.82 "Hg3 mi
1:51 pm58 °FHeavy rain. Fog.No wind100%29.82 "Hg1 mi
1:30 pm58 °FLight rain. Fog.No wind100%29.82 "Hg3 mi
12:51 pm59 °FFog.3 mph100%29.83 "Hg3 mi
12:00 pm57 °FLow clouds.8 mph100%29.83 "Hg10 mi
11:37 am58 °FLight rain. Fog.N/A100%29.83 "Hg2 mi
10:58 am58 °FLight rain. Fog.No wind100%29.83 "Hg2 mi
10:14 am57 °FLight rain. Fog.7 mph100%29.84 "Hg1 mi
9:58 am60 °FFog.5 mph100%29.83 "Hg2 mi
9:22 am60 °FFog.7 mph100%29.84 "Hg1 mi
9:06 am58 °FFog.No wind100%29.84 "Hg4 mi
7:51 am60 °FLight rain. Fog.6 mph100%29.85 "Hg3 mi
7:31 am60 °FLight rain. Fog.7 mph100%29.84 "Hg3 mi
6:51 am55 °FFog.3 mph100%29.83 "Hg3 mi
6:20 am56 °FLight rain. Fog.3 mph100%29.84 "Hg3 mi
5:51 am54 °FLight rain. Low clouds.6 mph100%29.85 "Hg8 mi
4:58 am53 °FLow clouds.9 mph100%29.85 "Hg10 mi
4:08 am52 °FRain. Fog.10 mph100%29.87 "Hg3 mi
3:37 am52 °FLight rain. Fog.8 mph100%29.88 "Hg2 mi
3:05 am51 °FHeavy rain. Fog.12 mph100%29.90 "Hg2 mi
2:11 am51 °FLight rain. Fog.13 mph100%29.94 "Hg3 mi
1:51 am51 °FRain. Fog.9 mph100%29.96 "Hg2 mi
1:38 am51 °FLight rain. Fog.8 mph100%29.96 "Hg4 mi
1:22 am51 °FHeavy rain. Fog.12 mph100%29.97 "Hg2 mi
12:51 am51 °FLight rain. Fog.9 mph100%29.98 "Hg4 mi
12:41 am51 °FRain. Fog.10 mph100%29.99 "Hg3 mi
12:05 am51 °FRain. Fog.7 mph100%30.01 "Hg2 mi
11:51 pm
Tue, Apr 25
51 °FRain. Fog.9 mph100%30.02 "Hg2 mi
11:33 pm51 °FHeavy rain. Fog.8 mph100%30.02 "Hg2 mi
Weather by CustomWeather, © 2017

See weather overviewHow to use our weather pages